{"data":{"norad_id":62725,"epoch":"2026-05-25T04:20:51.822240Z","epoch_age_seconds":52655,"freshness":"FRESH","line1":"1 62725U 25012A   26145.18115535  .00005938  00000+0  29732-3 0  9999","line2":"2 62725  97.4230 218.0899 0004923 354.9800   5.1383 15.17751479 74708","mean_motion":15.17751479,"eccentricity":0.0004923,"inclination_deg":97.423,"raan_deg":218.0899,"arg_perigee_deg":354.98,"mean_anomaly_deg":5.1383,"bstar":0.00029732,"rev_number":7470,"period_min":94.877193000581,"perigee_km":509.2455987001,"apogee_km":516.03025569342,"semimajor_km":6890.7749271968,"source":"CELESTRAK","updated_at":"2026-05-25T13:38:12.838040Z"}}